Location: PACMO
(41.3967°N, 90.3760°W)
Time: 22:44:08
(UTC-05:00)

Amateur Radio Satellites - All Passes

Search period start: 25 June 2017 22:14
Search period end: 26 June 2017 22:14
Location: PACMO, 41.3967°N, 90.3760°W

Satellite Date Start Highest point End Downlink Frequencies (MHz)
Time Altitude Azimuth
FO-29 25 Jun 22:14:26 22:21:55 45° 97° (E) 22:29:15 435.910
RS-15 25 Jun 22:15:02 22:27:13 74° 306° (NW) 22:39:41 29.354- 29.394
M-CUBED/EXP-1 PRIME 25 Jun 22:19:01 22:22:26 33° 104° (ESE) 22:26:06 437.505
DELFI C3 25 Jun 22:20:24 22:24:07 41° 261° (W) 22:27:51 145.870
YUBILEINY 25 Jun 22:21:18 22:30:02 74° 93° (E) 22:38:51 435.215
PCSat 25 Jun 22:36:58 22:41:46 33° 250° (WSW) 22:46:33 145.827
PRISM 25 Jun 22:37:58 22:41:50 39° 99° (E) 22:45:41 437.425
TIGRISAT 25 Jun 22:49:45 22:54:19 52° 99° (E) 22:58:45 435.000
BEESAT 2 25 Jun 22:50:12 22:53:53 35° 309° (NW) 22:57:39 435.950
O/OREOS (USA 219) 25 Jun 22:57:19 23:01:13 27° 301° (WNW) 23:05:07 437.305
SO-50 25 Jun 23:12:43 23:17:12 59° 54° (NE) 23:21:41 436.795
ESTCUBE 1 25 Jun 23:15:27 23:19:43 45° 72° (ENE) 23:24:01 437.505/2401.250
EO-88 25 Jun 23:17:56 23:19:34 13° 268° (W) 23:21:13 145.990 - 145.960
VELOX 1 25 Jun 23:18:37 23:20:25 12° 62° (ENE) 23:22:13 145.980
NO-84 25 Jun 23:23:04 23:26:41 31° 331° (NNW) 23:30:31 435.350 FM
UNISAT 6 25 Jun 23:32:00 23:36:33 52° 287° (WNW) 23:40:59 437.425
SPROUT 25 Jun 23:36:01 23:39:04 19° 66° (ENE) 23:42:08 437.525
LO-87 25 Jun 23:37:27 23:40:55 52° 261° (W) 23:44:25 145.935 - 145.965
M-CUBED/EXP-1 PRIME 25 Jun 23:54:03 23:56:43 19° 297° (WNW) 23:59:32 437.505
FO-29 25 Jun 23:59:34 00:06:45 42° 294° (WNW) 00:13:54 435.910
PRISM 26 Jun 00:14:03 00:16:48 18° 295° (WNW) 00:19:33 437.425
POLYITAN 1 26 Jun 00:16:51 00:20:36 29° 96° (E) 00:24:18 437.675
YUBILEINY 26 Jun 00:20:52 00:27:43 25° 295° (WNW) 00:34:40 435.215
QB50P2 26 Jun 00:27:27 00:31:32 41° 99° (E) 00:35:34 145.880/145.840
TIGRISAT 26 Jun 00:27:32 00:30:32 17° 296° (WNW) 00:33:30 435.000
RS-15 26 Jun 00:31:56 00:42:20 30° 334° (NNW) 00:52:45 29.354- 29.394
AIST 2D 26 Jun 00:34:48 00:38:17 66° 285° (WNW) 00:41:44 435.315
BUGSAT 1 26 Jun 00:40:33 00:42:21 12° 90° (E) 00:44:08 437.445
EO-79 26 Jun 00:51:42 00:56:00 72° 102° (ESE) 01:00:14 145.935-145.965
VELOX 1 26 Jun 00:51:56 00:56:17 67° 257° (WSW) 01:00:40 145.980
ESTCUBE 1 26 Jun 00:53:49 00:56:45 17° 268° (W) 00:59:40 437.505/2401.250
SO-50 26 Jun 00:54:33 00:57:11 15° 251° (WSW) 00:59:50 436.795
50 SAT 26 Jun 00:55:02 00:58:21 59° 75° (ENE) 01:01:40 437.505
NO-84 26 Jun 01:03:06 01:05:25 14° 352° (N) 01:07:47 435.350 FM
DUCHIFAT 1 26 Jun 01:05:17 01:09:33 83° 99° (E) 01:13:48 145.980
DX 1 26 Jun 01:10:22 01:14:38 63° 74° (ENE) 01:18:56 434.975-435.025
SPROUT 26 Jun 01:10:44 01:14:42 37° 262° (W) 01:18:42 437.525
NANOSAT C BR1 26 Jun 01:14:03 01:18:18 70° 286° (WNW) 01:22:31 145.865
UKube-1 26 Jun 01:26:44 01:30:59 65° 74° (ENE) 01:35:15 .
Gurwin Techsat 1B 26 Jun 01:52:04 01:55:46 19° 92° (E) 01:59:28 435.225
POLYITAN 1 26 Jun 01:52:46 01:56:15 25° 292° (WNW) 01:59:42 437.675
QB50P2 26 Jun 02:04:06 02:07:00 18° 295° (WNW) 02:09:52 145.880/145.840
BUGSAT 1 26 Jun 02:13:51 02:18:02 56° 286° (WNW) 02:22:10 437.445
EO-79 26 Jun 02:29:55 02:31:08 11° 299° (WNW) 02:32:22 145.935-145.965
MOZHAYETS 4 26 Jun 02:30:59 02:34:16 19° 65° (ENE) 02:37:34
Oscar 19 26 Jun 02:33:47 02:38:56 74° 103° (ESE) 02:44:02 437.125/150
NO-84 26 Jun 02:41:50 02:44:31 16° 13° (NNE) 02:47:11 435.350 FM
DX 1 26 Jun 02:49:52 02:51:13 11° 270° (W) 02:52:35 434.975-435.025
RS-15 26 Jun 02:50:59 03:00:25 24° 10° (N) 03:09:38 29.354- 29.394
ITUPSAT 1 26 Jun 02:52:49 02:57:27 50° 72° (ENE) 03:02:07 437.325
BEESAT 26 Jun 03:02:24 03:07:08 64° 73° (ENE) 03:11:53 436.000
UKube-1 26 Jun 03:06:15 03:07:25 11° 270° (W) 03:08:34 .
ITAMSAT 1 26 Jun 03:14:11 03:16:42 13° 90° (E) 03:19:12 435.822/435.867
CUBESAT XI-V 26 Jun 03:15:48 03:16:40 10° 60° (ENE) 03:17:32 437.345
AO-7 26 Jun 03:21:01 03:27:17 23° 93° (E) 03:33:29 .
Gurwin Techsat 1B 26 Jun 03:30:51 03:36:03 55° 289° (WNW) 03:41:13 435.225
KKS-1 26 Jun 04:01:09 04:04:28 21° 66° (ENE) 04:07:49 437.445
MOZHAYETS 4 26 Jun 04:06:39 04:11:05 44° 261° (W) 04:15:33
Oscar 19 26 Jun 04:14:52 04:17:37 15° 300° (WNW) 04:20:20 437.125/150
NO-84 26 Jun 04:18:56 04:23:06 40° 33° (NNE) 04:27:10 435.350 FM
STARS 26 Jun 04:29:49 04:32:49 18° 64° (ENE) 04:35:50 437.465
BEESAT 3 26 Jun 04:31:13 04:32:50 12° 39° (NE) 04:34:27 437.485
ITUPSAT 1 26 Jun 04:32:23 04:35:33 17° 268° (W) 04:38:44 437.325
BEESAT 26 Jun 04:42:59 04:45:20 13° 270° (W) 04:47:40 436.000
AO-85 26 Jun 04:48:01 04:51:31 27° 49° (NE) 04:55:11 145.980
CUBESAT XI-V 26 Jun 04:48:40 04:53:19 87° 257° (WSW) 04:57:58 437.345
ITAMSAT 1 26 Jun 04:51:26 04:56:41 74° 286° (WNW) 05:01:53 435.822/435.867
RS-15 26 Jun 05:05:22 05:17:06 48° 43° (NE) 05:28:15 29.354- 29.394
AO-7 26 Jun 05:12:24 05:20:48 78° 291° (WNW) 05:29:08 .
BEESAT 2 26 Jun 05:30:35 05:33:15 17° 43° (NE) 05:35:54 435.950
KKS-1 26 Jun 05:36:41 05:40:47 37° 262° (W) 05:44:55 437.445
DOVE 4 26 Jun 05:54:49 05:59:03 28° 95° (E) 06:03:26 437.250
NO-84 26 Jun 05:56:41 06:00:39 35° 231° (SW) 06:04:30 435.350 FM
CUTE-I 26 Jun 06:01:04 06:03:16 12° 89° (E) 06:05:27 437.470
STARS 26 Jun 06:04:39 06:08:48 43° 261° (W) 06:13:02 437.465
BEESAT 3 26 Jun 06:06:59 06:11:02 89° 82° (E) 06:14:59 437.485
AO-85 26 Jun 06:28:11 06:31:55 32° 244° (WSW) 06:35:50 145.980
NUDT-PHONESAT 26 Jun 06:33:24 06:36:03 19° 94° (E) 06:38:41 437.300
ITAMSAT 1 26 Jun 06:34:47 06:35:12 10° 304° (NW) 06:35:38 435.822/435.867
HO-68 26 Jun 06:44:28 06:46:05 11° 86° (E) 06:47:43 435.675
XW-2F 26 Jun 06:50:11 06:53:42 38° 98° (E) 06:57:11 145.980 - 146.000
XW-2D 26 Jun 06:54:31 06:58:10 47° 99° (E) 07:01:47 145.860 - 145.880
XW-2B 26 Jun 07:03:28 07:07:13 60° 101° (E) 07:10:54 145.730 - 145.750
LilacSat-2 26 Jun 07:03:29 07:07:15 65° 101° (E) 07:10:59 437.200
AO-7 26 Jun 07:06:56 07:12:15 19° 311° (NW) 07:17:34 .
BEESAT 2 26 Jun 07:07:22 07:11:22 58° 241° (WSW) 07:15:19 435.950
STRAND 1 26 Jun 07:14:20 07:19:20 54° 71° (ENE) 07:24:22 437.568
RS-15 26 Jun 07:18:15 07:29:59 60° 247° (WSW) 07:41:06 29.354- 29.394
XW-2C 26 Jun 07:18:58 07:22:46 83° 282° (WNW) 07:26:29 145.795 - 145.815
O/OREOS (USA 219) 26 Jun 07:27:12 07:31:38 57° 65° (ENE) 07:36:01 437.305
KAITUO 1B 26 Jun 07:31:35 07:35:17 75° 284° (WNW) 07:38:57 145.475/437.950
DOVE 4 26 Jun 07:32:16 07:36:42 35° 290° (WNW) 07:41:19 437.250
CUTE-I 26 Jun 07:38:31 07:43:56 81° 285° (WNW) 07:49:18 437.470
SEEDS 26 Jun 07:48:58 07:51:56 19° 93° (E) 07:54:53 437.485
Tancredo 1 26 Jun 07:59:27 08:02:21 44° 139° (SE) 08:05:16 437.200
NUDT-PHONESAT 26 Jun 08:06:47 08:09:58 27° 289° (WNW) 08:13:06 437.300
CUTE 1.7 + AOD 2 26 Jun 08:06:52 08:10:57 48° 99° (E) 08:15:00 437.475
CUBEBUG 2 26 Jun 08:25:04 08:29:31 40° 97° (E) 08:33:50 437.445
XW-2F 26 Jun 08:25:24 08:27:30 15° 294° (WNW) 08:29:35 145.980 - 146.000
ISS 26 Jun 08:26:30 08:29:35 40° 138° (SE) 08:32:42 437.550
HO-68 26 Jun 08:27:49 08:35:00 71° 104° (ESE) 08:42:08 435.675
FO-29 26 Jun 08:28:40 08:32:53 19° 56° (NE) 08:37:26 435.910
XW-2D 26 Jun 08:30:22 08:31:55 12° 295° (WNW) 08:33:28 145.860 - 145.880
YUBILEINY 26 Jun 08:31:46 08:39:49 37° 71° (ENE) 08:47:44 435.215
AAUSAT CUBESAT 2 26 Jun 08:37:20 08:40:59 30° 96° (E) 08:44:36 437.432
XW-2B 26 Jun 08:40:46 08:40:52 10° 297° (WNW) 08:40:57 145.730 - 145.750
Oscar 11 26 Jun 08:43:09 08:45:16 13° 91° (E) 08:47:23 .
XW-2A 26 Jun 08:45:25 08:48:49 71° 284° (WNW) 08:52:11 145.665 - 145.685
ZACube-1 26 Jun 08:51:05 08:54:46 25° 94° (E) 08:58:21 437.345
STRAND 1 26 Jun 08:55:22 08:58:49 18° 268° (W) 09:02:19 437.568
UNISAT 6 26 Jun 08:55:54 08:58:32 15° 62° (ENE) 09:01:10 437.425
UWE-3 26 Jun 08:57:15 09:01:45 52° 99° (E) 09:06:06 435.000/436.395/437.385
M-CUBED/EXP-1 PRIME 26 Jun 09:05:37 09:08:40 36° 67° (ENE) 09:11:42 437.505
O/OREOS (USA 219) 26 Jun 09:08:24 09:10:29 13° 262° (W) 09:12:33 437.305
CUTE-I 26 Jun 09:21:18 09:23:05 12° 303° (WNW) 09:24:53 437.470
SEEDS 26 Jun 09:23:55 09:27:43 35° 289° (WNW) 09:31:29 437.485
PRISM 26 Jun 09:27:21 09:30:49 28° 69° (ENE) 09:34:17 437.425
Tancredo 1 26 Jun 09:35:28 09:38:02 25° 337° (NNW) 09:40:38 437.200
RS-15 26 Jun 09:37:23 09:39:29 11° 269° (W) 09:41:36 29.354- 29.394
CUTE 1.7 + AOD 2 26 Jun 09:43:58 09:46:22 15° 295° (WNW) 09:48:48 437.475
TIGRISAT 26 Jun 09:47:57 09:52:19 45° 72° (ENE) 09:56:47 435.000
AO-73 26 Jun 09:51:10 09:55:37 80° 285° (WNW) 09:59:56 145.935
DELFI C3 26 Jun 09:57:28 10:00:35 22° 95° (E) 10:03:42 145.870
CUBEBUG 2 26 Jun 10:02:17 10:05:49 21° 294° (WNW) 10:09:18 437.445
ISS 26 Jun 10:03:13 10:06:08 29° 335° (NNW) 10:09:05 437.550
FO-29 26 Jun 10:10:52 10:16:55 81° 257° (WSW) 10:23:53 435.910
AAUSAT CUBESAT 2 26 Jun 10:13:06 10:16:16 22° 292° (WNW) 10:19:25 437.432
HO-68 26 Jun 10:16:37 10:22:04 24° 302° (WNW) 10:27:30 435.675
Oscar 11 26 Jun 10:17:31 10:21:43 52° 286° (WNW) 10:25:53 .
ZACube-1 26 Jun 10:27:08 10:31:02 30° 291° (WNW) 10:34:50 437.345
YUBILEINY 26 Jun 10:28:25 10:36:48 50° 271° (W) 10:45:07 435.215
UNISAT 6 26 Jun 10:30:09 10:34:40 61° 259° (W) 10:39:20 437.425
UWE-3 26 Jun 10:34:54 10:37:43 16° 296° (WNW) 10:40:30 435.000/436.395/437.385
M-CUBED/EXP-1 PRIME 26 Jun 10:42:33 10:43:19 11° 262° (W) 10:44:06 437.505
EO-88 26 Jun 10:44:12 10:47:47 53° 100° (E) 10:51:20 145.990 - 145.960
PRISM 26 Jun 11:02:52 11:06:04 22° 265° (W) 11:09:18 437.425
LO-87 26 Jun 11:05:54 11:07:19 12° 91° (E) 11:08:44 145.935 - 145.965
AIST 2D 26 Jun 11:08:50 11:12:10 39° 73° (ENE) 11:15:31 435.315
POLYITAN 1 26 Jun 11:09:35 11:12:55 23° 67° (ENE) 11:16:17 437.675
Tancredo 1 26 Jun 11:13:02 11:14:25 12° 356° (N) 11:15:49 437.200
QB50P2 26 Jun 11:19:58 11:23:43 31° 70° (ENE) 11:27:31 145.880/145.840
TIGRISAT 26 Jun 11:26:01 11:29:13 18° 268° (W) 11:32:27 435.000
DELFI C3 26 Jun 11:31:59 11:35:19 27° 290° (WNW) 11:38:38 145.870
PCSat 26 Jun 11:35:26 11:40:09 31° 109° (ESE) 11:44:54 145.827
ISS 26 Jun 11:41:33 11:43:26 14° 356° (N) 11:45:18 437.550
EO-79 26 Jun 11:43:43 11:47:50 52° 73° (ENE) 11:52:01 145.935-145.965
DUCHIFAT 1 26 Jun 11:56:36 12:00:46 59° 74° (ENE) 12:04:57 145.980
FO-29 26 Jun 12:01:14 12:03:17 12° 278° (W) 12:05:24 435.910
NANOSAT C BR1 26 Jun 12:05:32 12:09:47 84° 75° (ENE) 12:14:03 145.865
Oscar 19 26 Jun 12:14:25 12:17:06 14° 60° (ENE) 12:19:48 437.125/150
EO-88 26 Jun 12:20:13 12:20:59 11° 296° (WNW) 12:21:44 145.990 - 145.960
LO-87 26 Jun 12:37:30 12:40:58 42° 287° (WNW) 12:44:24 145.935 - 145.965
VELOX 1 26 Jun 12:42:18 12:45:46 22° 95° (E) 12:49:13 145.980
ESTCUBE 1 26 Jun 12:44:05 12:48:35 81° 283° (WNW) 12:53:03 437.505/2401.250
AIST 2D 26 Jun 12:44:10 12:45:33 12° 269° (W) 12:46:57 435.315
POLYITAN 1 26 Jun 12:44:42 12:48:31 32° 263° (W) 12:52:22 437.675
Tancredo 1 26 Jun 12:48:47 12:50:56 17° 16° (NNE) 12:53:04 437.200
SPROUT 26 Jun 12:56:01 12:59:58 34° 97° (E) 13:03:52 437.525
QB50P2 26 Jun 12:56:11 12:59:32 22° 266° (W) 13:02:54 145.880/145.840
DX 1 26 Jun 13:01:02 13:02:00 11° 90° (E) 13:02:58 434.975-435.025
BUGSAT 1 26 Jun 13:02:56 13:07:04 83° 257° (WSW) 13:11:17 437.445
Gurwin Techsat 1B 26 Jun 13:12:55 13:17:31 31° 67° (ENE) 13:22:09 435.225
UKube-1 26 Jun 13:16:35 13:17:11 10° 90° (E) 13:17:47 .
PCSat 26 Jun 13:18:23 13:23:25 38° 307° (NW) 13:28:30 145.827
ISS 26 Jun 13:18:26 13:20:53 19° 16° (NNE) 13:23:19 437.550
EO-79 26 Jun 13:21:49 13:23:55 13° 269° (W) 13:26:00 145.935-145.965
SO-50 26 Jun 13:28:17 13:31:23 18° 111° (ESE) 13:34:28 436.795
DUCHIFAT 1 26 Jun 13:35:15 13:36:47 12° 270° (W) 13:38:21 145.980
50 SAT 26 Jun 13:49:48 13:53:11 60° 101° (E) 13:56:33 437.505
Oscar 19 26 Jun 13:50:37 13:55:46 76° 257° (WSW) 14:00:56 437.125/150
VELOX 1 26 Jun 14:18:16 14:22:16 34° 290° (WNW) 14:26:15 145.980
AO-7 26 Jun 14:19:59 14:27:11 34° 58° (ENE) 14:34:26 .
Tancredo 1 26 Jun 14:23:51 14:26:54 79° 34° (NE) 14:29:56 437.200
ITAMSAT 1 26 Jun 14:31:35 14:35:33 23° 64° (ENE) 14:39:33 435.822/435.867
SPROUT 26 Jun 14:32:22 14:35:38 21° 293° (WNW) 14:38:54 437.525
DX 1 26 Jun 14:34:16 14:38:37 69° 286° (WNW) 14:42:58 434.975-435.025
UKube-1 26 Jun 14:49:20 14:53:39 69° 286° (WNW) 14:57:56 .
Gurwin Techsat 1B 26 Jun 14:52:35 14:57:22 34° 263° (W) 15:02:11 435.225
ISS 26 Jun 14:54:30 14:57:48 76° 35° (NE) 15:01:05 437.550
ITUPSAT 1 26 Jun 14:55:09 14:57:09 12° 90° (E) 14:59:09 437.325
BEESAT 26 Jun 15:03:40 15:06:35 16° 92° (E) 15:09:29 436.000
SO-50 26 Jun 15:07:01 15:11:27 51° 307° (NW) 15:15:53 436.795
MOZHAYETS 4 26 Jun 16:01:23 16:05:44 41° 98° (E) 16:10:01
Tancredo 1 26 Jun 16:01:36 16:02:02 10° 231° (SW) 16:02:29 437.200
ITAMSAT 1 26 Jun 16:09:41 16:14:41 47° 260° (W) 16:19:44 435.822/435.867
AO-7 26 Jun 16:11:23 16:19:32 58° 257° (WSW) 16:27:46 .
ITUPSAT 1 26 Jun 16:30:40 16:35:27 69° 286° (WNW) 16:40:11 437.325
ISS 26 Jun 16:32:25 16:33:52 12° 230° (SW) 16:35:18 437.550
BEESAT 26 Jun 16:40:00 16:44:41 54° 288° (WNW) 16:49:19 436.000
CUBESAT XI-V 26 Jun 16:45:41 16:49:17 22° 94° (E) 16:52:53 437.345
DOVE 4 26 Jun 17:01:11 17:04:30 23° 67° (ENE) 17:07:54 437.250
HO-68 26 Jun 17:15:52 17:16:54 10° 47° (NE) 17:17:57 435.675
CUTE-I 26 Jun 17:22:07 17:26:08 22° 63° (ENE) 17:30:11 437.470
KKS-1 26 Jun 17:27:04 17:31:18 39° 99° (E) 17:35:30 437.445
XW-2F 26 Jun 17:31:30 17:34:19 20° 68° (ENE) 17:37:07 145.980 - 146.000
XW-2D 26 Jun 17:35:57 17:39:04 24° 69° (ENE) 17:42:11 145.860 - 145.880
MOZHAYETS 4 26 Jun 17:39:14 17:42:35 20° 295° (WNW) 17:45:56
XW-2B 26 Jun 17:44:44 17:48:04 29° 70° (ENE) 17:51:24 145.730 - 145.750
LilacSat-2 26 Jun 17:45:16 17:48:42 31° 71° (ENE) 17:52:10 437.200
STARS 26 Jun 17:53:44 17:57:44 32° 97° (E) 18:01:42 437.465
XW-2C 26 Jun 17:59:53 18:03:33 45° 74° (ENE) 18:07:14 145.795 - 145.815
KAITUO 1B 26 Jun 18:11:10 18:14:48 47° 74° (ENE) 18:18:27 145.475/437.950
CUBESAT XI-V 26 Jun 18:22:33 18:26:44 35° 290° (WNW) 18:30:53 437.345
DOVE 4 26 Jun 18:38:27 18:42:04 28° 265° (W) 18:45:48 437.250
SEEDS 26 Jun 18:41:30 18:43:43 14° 64° (ENE) 18:45:57 437.485
NUDT-PHONESAT 26 Jun 18:45:04 18:48:48 63° 259° (W) 18:52:33 437.300
HO-68 26 Jun 18:56:06 19:03:01 53° 67° (ENE) 19:09:58 435.675
CUTE 1.7 + AOD 2 26 Jun 18:59:24 19:03:13 34° 71° (ENE) 19:07:04 437.475
CUTE-I 26 Jun 19:00:40 19:05:49 50° 260° (W) 19:11:01 437.470
KKS-1 26 Jun 19:04:16 19:07:34 21° 295° (WNW) 19:10:52 437.445
XW-2F 26 Jun 19:04:55 19:08:16 28° 264° (W) 19:11:37 145.980 - 146.000
XW-2D 26 Jun 19:10:04 19:13:10 23° 265° (W) 19:16:18 145.860 - 145.880
XW-2A 26 Jun 19:16:29 19:19:38 34° 72° (ENE) 19:22:47 145.665 - 145.685
XW-2B 26 Jun 19:19:28 19:22:16 19° 266° (W) 19:25:05 145.730 - 145.750
LilacSat-2 26 Jun 19:20:22 19:23:02 18° 267° (W) 19:25:43 437.200
CUBEBUG 2 26 Jun 19:22:47 19:26:54 34° 70° (ENE) 19:31:09 437.445
STRAND 1 26 Jun 19:25:44 19:29:17 18° 92° (E) 19:32:46 437.568
AAUSAT CUBESAT 2 26 Jun 19:27:49 19:30:54 21° 67° (ENE) 19:33:58 437.432
STARS 26 Jun 19:30:20 19:33:54 24° 293° (WNW) 19:37:27 437.465
RS-15 26 Jun 19:31:16 19:40:14 25° 100° (E) 19:49:18 29.354- 29.394
XW-2C 26 Jun 19:36:17 19:37:58 12° 269° (W) 19:39:40 145.795 - 145.815
Oscar 11 26 Jun 19:39:01 19:40:30 12° 62° (ENE) 19:41:58 .
ZACube-1 26 Jun 19:46:50 19:50:16 21° 66° (ENE) 19:53:44 437.345
KAITUO 1B 26 Jun 19:47:42 19:49:03 12° 269° (W) 19:50:24 145.475/437.950
UWE-3 26 Jun 19:53:38 19:57:58 42° 71° (ENE) 20:02:23 435.000/436.395/437.385
BEESAT 3 26 Jun 19:58:20 20:00:25 14° 109° (ESE) 20:02:31 437.485
SEEDS 26 Jun 20:14:53 20:18:58 52° 260° (W) 20:23:04 437.485
PCSat 26 Jun 20:22:46 20:27:26 28° 49° (NE) 20:32:05 145.827
CUTE 1.7 + AOD 2 26 Jun 20:35:58 20:39:07 20° 267° (W) 20:42:17 437.475
AO-85 26 Jun 20:42:18 20:46:22 77° 121° (ESE) 20:50:19 145.980
DELFI C3 26 Jun 20:44:01 20:45:59 14° 65° (ENE) 20:47:58 145.870
HO-68 26 Jun 20:44:49 20:50:58 30° 265° (W) 20:57:11 435.675
AO-73 26 Jun 20:45:47 20:50:19 78° 77° (ENE) 20:54:54 145.935
XW-2A 26 Jun 20:50:51 20:52:30 13° 268° (W) 20:54:09 145.665 - 145.685
BEESAT 2 26 Jun 20:59:03 21:02:09 22° 112° (ESE) 21:05:18 435.950
CUBEBUG 2 26 Jun 20:59:47 21:03:33 25° 267° (W) 21:07:24 437.445
AAUSAT CUBESAT 2 26 Jun 21:02:27 21:06:09 32° 263° (W) 21:09:52 437.432
STRAND 1 26 Jun 21:03:44 21:08:45 53° 288° (WNW) 21:13:44 437.568
Oscar 11 26 Jun 21:11:42 21:16:02 71° 259° (W) 21:20:23 .
NO-84 26 Jun 21:12:58 21:16:28 35° 129° (SE) 21:20:14 435.350 FM
FO-29 26 Jun 21:21:04 21:26:19 19° 87° (E) 21:31:28 435.910
ZACube-1 26 Jun 21:22:00 21:26:16 39° 263° (W) 21:30:35 437.345
EO-88 26 Jun 21:22:16 21:25:12 23° 69° (ENE) 21:28:09 145.990 - 145.960
UWE-3 26 Jun 21:31:17 21:34:35 19° 268° (W) 21:37:57 435.000/436.395/437.385
YUBILEINY 26 Jun 21:32:46 21:40:48 42° 87° (E) 21:48:53 435.215
BEESAT 3 26 Jun 21:33:40 21:37:33 52° 306° (NW) 21:41:29 437.485
RS-15 26 Jun 21:38:53 21:51:05 89° 301° (WNW) 22:03:33 29.354- 29.394
O/OREOS (USA 219) 26 Jun 21:39:14 21:43:45 68° 109° (ESE) 21:48:15 437.305
SO-50 26 Jun 21:58:19 22:01:42 20° 43° (NE) 22:05:05 436.795
